Weather History for Middlesboro, KY

Change the Weather History Date:

Monday, March 24, 2014

  Actual Average (KLOZ) Record (KLOZ)
Temperature  
Mean Temperature 37 °F 50 °F  
Max Temperature 51 °F 61 °F 84 °F (2007)
Min Temperature 23 °F 38 °F 17 °F (1971)
Degree Days  
Heating Degree Days 28 15  
Month to date heating degree days 448  
Since 1 July heating degree days 3724  
Cooling Degree Days 0 0  
Month to date cooling degree days 0  
Year to date cooling degree days 0  
Moisture  
Dew Point 18 °F    
Average Humidity 51    
Maximum Humidity 92    
Minimum Humidity 20    
Precipitation  
Precipitation 0.00 in 0.13 in 0.86 in (2013)
Month to date precipitation 3.13  
Year to date precipitation 10.38  
Sea Level Pressure  
Sea Level Pressure 30.18 in    
Wind  
Wind Speed 1 mph (NNE)    
Max Wind Speed 10 mph    
Max Gust Speed -    
Visibility 10 miles    
Events      
T = Trace of Precipitation, MM = Missing Value Source: NWS Daily Summary

Daily Weather History Graph

Daily Weather History Graph

Search for Another Location

Airport:

Trip Planner

Search our weather history database for the weather conditions in past years. The results will help you decide how hot, cold, wet, or windy it might be!

Date:

Astronomy

Mar. 24, 2014 Rise Set
Actual Time 6:32 AM CDT 6:50 PM CDT
Civil Twilight 6:06 AM CDT 7:16 PM CDT
Nautical Twilight 5:36 AM CDT 7:46 PM CDT
Astronomical Twilight 5:05 AM CDT 8:17 PM CDT
Moon 1:53 AM CDT (3/24) 12:23 PM CDT (3/24)
Length of Visible Light 13h 09m
Length of Day
12h 17m
Last Quarter, 43% of the Moon is Illuminated
Mar 24
Last Quarter
Mar 30
New
Apr 7
First Quarter
Apr 15
Full
Apr 22
Last Quarter

Hourly Weather History & Observations

Time (CDT) Temp. Windchill Dew Point Humidity Pressure Visibility Wind Dir Wind Speed Gust Speed Precip Events Conditions
12:15 AM 31.6 °F - 23.4 °F 71% 30.26 in 10.0 mi Calm Calm - N/A   Clear
12:35 AM 31.1 °F - 23.9 °F 75% 30.26 in 10.0 mi Calm Calm - N/A   Clear
12:55 AM 29.8 °F - 23.9 °F 79% 30.26 in 10.0 mi Calm Calm - N/A   Clear
1:15 AM 29.3 °F - 24.3 °F 81% 30.26 in 10.0 mi Calm Calm - N/A   Clear
1:35 AM 29.3 °F - 24.6 °F 83% 30.26 in 10.0 mi Calm Calm - N/A   Clear
1:55 AM 28.8 °F - 24.3 °F 83% 30.25 in 10.0 mi Calm Calm - N/A   Clear
2:15 AM 28.4 °F - 23.9 °F 83% 30.26 in 10.0 mi Calm Calm - N/A   Clear
2:35 AM 27.7 °F - 23.7 °F 85% 30.25 in 10.0 mi Calm Calm - N/A   Clear
2:55 AM 27.5 °F - 23.5 °F 85% 30.25 in 10.0 mi Calm Calm - N/A   Clear
3:15 AM 27.1 °F - 23.5 °F 86% 30.25 in 10.0 mi Calm Calm - N/A   Clear
3:35 AM 26.2 °F - 22.6 °F 86% 30.25 in 10.0 mi Calm Calm - N/A   Clear
3:55 AM 26.1 °F - 22.6 °F 87% 30.25 in 10.0 mi Calm Calm - N/A   Clear
4:15 AM 25.7 °F - 22.1 °F 86% 30.26 in 10.0 mi Calm Calm - N/A   Clear
4:35 AM 25.3 °F - 22.1 °F 87% 30.26 in 10.0 mi Calm Calm - N/A   Clear
4:55 AM 24.8 °F - 21.9 °F 89% 30.26 in 10.0 mi Calm Calm - N/A   Clear
5:15 AM 25.0 °F - 22.5 °F 90% 30.27 in 10.0 mi Calm Calm - N/A   Clear
5:35 AM 23.9 °F - 21.2 °F 89% 30.27 in 10.0 mi Calm Calm - N/A   Clear
5:55 AM 23.9 °F - 21.7 °F 91% 30.27 in 10.0 mi Calm Calm - N/A   Clear
6:15 AM 23.9 °F - 21.4 °F 90% 30.27 in 10.0 mi Calm Calm - N/A   Clear
6:35 AM 23.0 °F - 21.0 °F 92% 30.27 in 10.0 mi Calm Calm - N/A   Clear
6:55 AM 23.4 °F - 21.2 °F 91% 30.27 in 10.0 mi Calm Calm - N/A   Clear
7:15 AM 24.4 °F - 21.9 °F 90% 30.27 in 10.0 mi Calm Calm - N/A   Clear
7:35 AM 25.5 °F - 23.0 °F 90% 30.28 in 10.0 mi Calm Calm - N/A   Clear
7:55 AM 27.0 °F - 23.0 °F 85% 30.28 in 10.0 mi Calm Calm - N/A   Clear
8:15 AM 28.4 °F - 23.0 °F 80% 30.28 in 10.0 mi Calm Calm - N/A   Clear
8:35 AM 31.1 °F - 23.7 °F 74% 30.28 in 10.0 mi Calm Calm - N/A   Clear
8:55 AM 32.4 °F - 20.1 °F 61% 30.28 in 10.0 mi Calm Calm - N/A   Clear
9:15 AM 34.0 °F - 19.4 °F 55% 30.27 in 10.0 mi Calm Calm - N/A   Clear
9:35 AM 35.4 °F - 19.2 °F 52% 30.27 in 10.0 mi Calm Calm - N/A   Clear
9:55 AM 37.4 °F 34.9 °F 19.2 °F 48% 30.27 in 10.0 mi NNE 3.5 mph - N/A   Clear
10:15 AM 38.5 °F 36.1 °F 18.1 °F 44% 30.27 in 10.0 mi SE 3.5 mph - N/A   Clear
10:35 AM 39.6 °F 35.4 °F 15.8 °F 38% 30.26 in 10.0 mi SSE 5.8 mph - N/A   Clear
10:55 AM 40.5 °F - 15.8 °F 37% 30.26 in 10.0 mi Calm Calm - N/A   Clear
11:15 AM 42.1 °F 39.2 °F 16.2 °F 35% 30.25 in 10.0 mi South 4.6 mph - N/A   Clear
11:35 AM 42.1 °F 39.2 °F 14.9 °F 33% 30.24 in 10.0 mi SW 4.6 mph - N/A   Clear
11:55 AM 43.9 °F - 15.6 °F 32% 30.24 in 10.0 mi Calm Calm - N/A   Clear
12:15 PM 45.1 °F - 15.4 °F 30% 30.23 in 10.0 mi Calm Calm - N/A   Clear
12:35 PM 45.0 °F 41.8 °F 15.3 °F 30% 30.21 in 10.0 mi ESE 5.8 mph - N/A   Clear
1:15 PM 47.3 °F - 14.4 °F 27% 30.17 in 10.0 mi East 5.8 mph - N/A   Clear
1:35 PM 48.2 °F - 15.6 °F 27% 30.16 in 10.0 mi North 4.6 mph - N/A   Clear
1:55 PM 48.2 °F - 12.9 °F 24% 30.15 in 10.0 mi East 6.9 mph - N/A   Clear
2:15 PM 48.4 °F - 13.3 °F 24% 30.13 in 10.0 mi East 3.5 mph - N/A   Clear
2:35 PM 50.0 °F - 16.0 °F 26% 30.12 in 10.0 mi NNE 6.9 mph - N/A   Clear
2:55 PM 50.2 °F - 14.2 °F 24% 30.10 in 10.0 mi ENE 5.8 mph - N/A   Clear
3:15 PM 50.2 °F - 15.4 °F 25% 30.09 in 10.0 mi North 3.5 mph - N/A   Clear
3:35 PM 51.3 °F - 14.4 °F 23% 30.09 in 10.0 mi Calm Calm - N/A   Clear
3:55 PM 50.9 °F - 14.0 °F 23% 30.08 in 10.0 mi North 8.1 mph - N/A   Clear
4:15 PM 50.7 °F - 11.7 °F 21% 30.08 in 10.0 mi North 4.6 mph - N/A   Clear
4:35 PM 51.4 °F - 12.2 °F 21% 30.07 in 10.0 mi North 5.8 mph - N/A   Clear
4:55 PM 50.7 °F - 10.9 °F 20% 30.07 in 10.0 mi NNE 6.9 mph - N/A   Clear
5:15 PM 50.4 °F - 12.4 °F 22% 30.07 in 10.0 mi NNE 9.2 mph - N/A   Clear
5:35 PM 48.9 °F - 12.9 °F 24% 30.07 in 10.0 mi North 10.4 mph - N/A   Clear
5:55 PM 47.7 °F - 12.6 °F 24% 30.07 in 10.0 mi NNE 4.6 mph - N/A   Clear
6:15 PM 46.6 °F - 11.8 °F 25% 30.07 in 10.0 mi North 5.8 mph - N/A   Clear
6:35 PM 45.9 °F 43.6 °F 12.4 °F 26% 30.07 in 10.0 mi NNE 4.6 mph - N/A   Clear
6:55 PM 44.8 °F 42.4 °F 12.6 °F 27% 30.07 in 10.0 mi NNW 4.6 mph - N/A   Clear
7:15 PM 43.7 °F - 13.1 °F 29% 30.07 in 10.0 mi Calm Calm - N/A   Clear
7:35 PM 43.2 °F - 13.1 °F 30% 30.07 in 10.0 mi Calm Calm - N/A   Clear
7:55 PM 43.3 °F - 13.3 °F 30% 30.06 in 10.0 mi Calm Calm - N/A   Clear
8:15 PM 42.3 °F - 19.8 °F 41% 30.06 in 10.0 mi Calm Calm - N/A   Clear
8:35 PM 42.8 °F - 12.9 °F 30% 30.06 in 10.0 mi Calm Calm - N/A   Clear
8:55 PM 42.8 °F - 15.4 °F 33% 30.06 in 10.0 mi Calm Calm - N/A   Clear
9:15 PM 41.9 °F - 19.2 °F 40% 30.05 in 10.0 mi Calm Calm - N/A   Clear
9:35 PM 42.1 °F 40.2 °F 15.4 °F 34% 30.05 in 10.0 mi NNW 3.5 mph - N/A   Clear
9:55 PM 42.4 °F 39.6 °F 14.5 °F 32% 30.06 in 10.0 mi NW 4.6 mph - N/A   Scattered Clouds
10:15 PM 42.3 °F 38.6 °F 13.5 °F 31% 30.06 in 10.0 mi North 5.8 mph - N/A   Mostly Cloudy
10:35 PM 42.1 °F 37.1 °F 12.4 °F 30% 30.05 in 10.0 mi North 8.1 mph - N/A   Scattered Clouds
10:55 PM 41.4 °F 37.6 °F 14.5 °F 34% 30.05 in 10.0 mi North 5.8 mph - N/A   Scattered Clouds
11:15 PM 41.4 °F 39.4 °F 12.6 °F 31% 30.04 in 10.0 mi NW 3.5 mph - N/A   Mostly Cloudy
11:35 PM 41.0 °F 39.0 °F 13.8 °F 33% 30.03 in 10.0 mi NNW 3.5 mph - N/A   Mostly Cloudy
11:55 PM 40.8 °F - 12.6 °F 32% 30.03 in 10.0 mi Calm Calm - N/A   Overcast